Skip Navigation
Skip Navigation

Today's Weather Data

Time Wind Dir Wind Spd
mph
Wind Gust
mph
Hum In
%
Humidity
%
Temp In
F
Temp
F
Raw Barom
in
Tot Rain
in
UV Solar
W/sqm
DailyRain
in
HourRain
in
24HrRain
in
RainRate
in/hr
5/22/2015 12:07:03a 221 0 5 34 68 76.6 56.3 30.02 11.35 0.0 0 0.00 0.00 0.00 0.000
5/22/2015 12:08:03a 221 1 5 34 68 76.6 56.3 30.02 11.35 0.0 0 0.00 0.00 0.00 0.000
5/22/2015 12:09:03a 221 2 5 34 68 76.6 56.3 30.02 11.35 0.0 0 0.00 0.00 0.00 0.000
5/22/2015 12:10:03a 221 3 5 34 68 76.6 56.3 30.02 11.35 0.0 0 0.00 0.00 0.00 0.000
5/22/2015 12:11:03a 221 2 5 34 68 76.5 56.2 30.02 11.35 0.0 0 0.00 0.00 0.00 0.000
5/22/2015 12:12:03a 221 2 5 34 68 76.5 56.2 30.02 11.35 0.0 0 0.00 0.00 0.00 0.000
5/22/2015 12:13:03a 221 1 5 34 68 76.5 56.2 30.02 11.35 0.0 0 0.00 0.00 0.00 0.000
5/22/2015 12:14:03a 221 0 5 34 68 76.5 56.2 30.02 11.35 0.0 0 0.00 0.00 0.00 0.000
5/22/2015 12:15:03a 221 0 5 34 68 76.5 56.2 30.02 11.35 0.0 0 0.00 0.00 0.00 0.000
5/22/2015 12:16:03a 221 1 5 34 68 76.5 56.2 30.02 11.35 0.0 0 0.00 0.00 0.00 0.000
5/22/2015 12:17:04a 221 2 5 34 68 76.5 56.2 30.02 11.35 0.0 0 0.00 0.00 0.00 0.000
5/22/2015 12:18:04a 221 0 5 34 68 76.5 56.1 30.02 11.35 0.0 0 0.00 0.00 0.00 0.000
5/22/2015 12:19:04a 221 0 0 34 68 76.5 56.1 30.02 11.35 0.0 0 0.00 0.00 0.00 0.000
5/22/2015 12:20:04a 221 0 0 34 68 76.5 56.1 30.02 11.35 0.0 0 0.00 0.00 0.00 0.000
5/22/2015 12:21:04a 221 0 0 34 68 76.5 56.1 30.02 11.35 0.0 0 0.00 0.00 0.00 0.000
5/22/2015 12:22:04a 221 0 1 34 68 76.5 56.1 30.02 11.35 0.0 0 0.00 0.00 0.00 0.000
5/22/2015 12:23:04a 221 0 1 34 68 76.5 56.1 30.02 11.35 0.0 0 0.00 0.00 0.00 0.000
5/22/2015 12:24:04a 221 0 1 34 68 76.5 56.1 30.02 11.35 0.0 0 0.00 0.00 0.00 0.000
5/22/2015 12:25:04a 221 0 1 34 68 76.5 56.1 30.02 11.35 0.0 0 0.00 0.00 0.00 0.000
5/22/2015 12:26:04a 221 0 1 34 68 76.5 56.1 30.02 11.35 0.0 0 0.00 0.00 0.00 0.000
5/22/2015 12:27:05a 221 0 1 34 68 76.5 56.1 30.02 11.35 0.0 0 0.00 0.00 0.00 0.000
5/22/2015 12:28:05a 221 0 1 34 68 76.3 56.1 30.02 11.35 0.0 0 0.00 0.00 0.00 0.000
5/22/2015 12:29:05a 221 0 1 34 68 76.3 56.1 30.02 11.35 0.0 0 0.00 0.00 0.00 0.000
5/22/2015 12:30:05a 221 0 2 34 68 76.3 56.1 30.03 11.35 0.0 0 0.00 0.00 0.00 0.000
5/22/2015 12:31:05a 221 0 2 34 68 76.3 56.1 30.03 11.35 0.0 0 0.00 0.00 0.00 0.000
5/22/2015 12:32:05a 221 2 2 34 68 76.3 56.1 30.03 11.35 0.0 0 0.00 0.00 0.00 0.000
5/22/2015 12:33:05a 221 0 2 34 68 76.3 56.1 30.02 11.35 0.0 0 0.00 0.00 0.00 0.000
5/22/2015 12:34:05a 221 3 3 34 68 76.3 56.1 30.02 11.35 0.0 0 0.00 0.00 0.00 0.000
5/22/2015 12:35:14a 221 0 3 34 68 76.3 56.1 30.03 11.35 0.0 0 0.00 0.00 0.00 0.000
5/22/2015 12:36:14a 221 3 3 34 68 76.3 56.1 30.02 11.35 0.0 0 0.00 0.00 0.00 0.000
5/22/2015 12:37:14a 221 3 3 34 68 76.3 56.1 30.02 11.35 0.0 0 0.00 0.00 0.00 0.000
5/22/2015 12:38:14a 209 3 4 34 68 76.3 56.1 30.02 11.35 0.0 0 0.00 0.00 0.00 0.000
5/22/2015 12:39:15a 199 1 5 34 68 76.3 56.0 30.03 11.35 0.0 0 0.00 0.00 0.00 0.000
5/22/2015 12:40:39a 202 3 5 34 68 76.3 56.0 30.03 11.35 0.0 0 0.00 0.00 0.00 0.000
5/22/2015 12:41:39a 202 0 5 34 68 76.3 56.0 30.03 11.35 0.0 0 0.00 0.00 0.00 0.000
5/22/2015 12:42:39a 202 3 5 34 68 76.3 56.0 30.03 11.35 0.0 0 0.00 0.00 0.00 0.000
5/22/2015 12:43:39a 202 3 5 34 68 76.3 56.0 30.03 11.35 0.0 0 0.00 0.00 0.00 0.000
5/22/2015 12:44:39a 213 0 5 34 68 76.3 56.0 30.02 11.35 0.0 0 0.00 0.00 0.00 0.000
5/22/2015 12:45:39a 213 0 5 34 68 76.3 56.0 30.03 11.35 0.0 0 0.00 0.00 0.00 0.000
5/22/2015 12:46:39a 213 1 5 34 68 76.3 55.9 30.03 11.35 0.0 0 0.00 0.00 0.00 0.000
5/22/2015 12:47:39a 213 2 5 34 68 76.3 55.9 30.03 11.35 0.0 0 0.00 0.00 0.00 0.000
5/22/2015 12:48:39a 213 1 5 34 68 76.3 55.9 30.03 11.35 0.0 0 0.00 0.00 0.00 0.000
5/22/2015 12:49:39a 213 2 2 34 68 76.1 55.9 30.03 11.35 0.0 0 0.00 0.00 0.00 0.000
5/22/2015 12:50:39a 197 1 5 34 68 76.1 55.9 30.03 11.35 0.0 0 0.00 0.00 0.00 0.000
5/22/2015 12:51:39a 197 0 5 34 68 76.1 55.9 30.03 11.35 0.0 0 0.00 0.00 0.00 0.000
5/22/2015 12:52:40a 197 2 5 34 68 76.1 55.9 30.03 11.35 0.0 0 0.00 0.00 0.00 0.000
5/22/2015 12:53:40a 197 4 5 34 68 76.1 55.9 30.03 11.35 0.0 0 0.00 0.00 0.00 0.000
5/22/2015 12:54:40a 196 3 5 34 68 76.1 55.8 30.03 11.35 0.0 0 0.00 0.00 0.00 0.000
5/22/2015 12:55:40a 196 2 5 34 68 76.1 55.8 30.03 11.35 0.0 0 0.00 0.00 0.00 0.000
5/22/2015 12:56:40a 195 0 5 34 68 76.1 55.8 30.03 11.35 0.0 0 0.00 0.00 0.00 0.000
5/22/2015 12:57:40a 196 0 5 34 68 76.1 55.8 30.03 11.35 0.0 0 0.00 0.00 0.00 0.000
5/22/2015 12:58:40a 196 1 5 34 68 76.1 55.8 30.03 11.35 0.0 0 0.00 0.00 0.00 0.000
5/22/2015 12:59:40a 195 1 5 34 68 76.1 55.8 30.03 11.35 0.0 0 0.00 0.00 0.00 0.000
5/22/2015 1:00:40a 197 0 5 34 68 76.1 55.7 30.03 11.35 0.0 0 0.00 0.00 0.00 0.000
5/22/2015 1:01:40a 197 0 5 34 68 76.1 55.7 30.03 11.35 0.0 0 0.00 0.00 0.00 0.000
5/22/2015 1:02:40a 197 0 5 34 68 76.1 55.7 30.02 11.35 0.0 0 0.00 0.00 0.00 0.000
5/22/2015 1:03:40a 197 0 5 34 68 76.1 55.7 30.03 11.35 0.0 0 0.00 0.00 0.00 0.000
5/22/2015 1:04:40a 197 0 0 34 68 76.1 55.7 30.02 11.35 0.0 0 0.00 0.00 0.00 0.000
5/22/2015 1:05:41a 197 0 2 34 68 76.1 55.7 30.03 11.35 0.0 0 0.00 0.00 0.00 0.000
5/22/2015 1:06:41a 197 0 2 34 68 76.1 55.7 30.02 11.35 0.0 0 0.00 0.00 0.00 0.000
5/22/2015 1:07:41a 197 0 2 34 68 76.1 55.7 30.03 11.35 0.0 0 0.00 0.00 0.00 0.000
5/22/2015 1:08:41a 197 0 2 34 68 75.9 55.7 30.02 11.35 0.0 0 0.00 0.00 0.00 0.000
5/22/2015 1:09:41a 197 2 3 34 68 75.9 55.7 30.03 11.35 0.0 0 0.00 0.00 0.00 0.000
5/22/2015 1:10:41a 197 3 3 34 68 75.9 55.7 30.03 11.35 0.0 0 0.00 0.00 0.00 0.000
5/22/2015 1:11:41a 199 1 3 34 68 75.9 55.7 30.03 11.35 0.0 0 0.00 0.00 0.00 0.000
5/22/2015 1:12:41a 199 0 3 34 68 75.9 55.6 30.03 11.35 0.0 0 0.00 0.00 0.00 0.000
5/22/2015 1:13:44a 199 0 3 34 68 75.9 55.6 30.03 11.35 0.0 0 0.00 0.00 0.00 0.000
5/22/2015 1:14:44a 199 0 3 34 68 75.9 55.6 30.03 11.35 0.0 0 0.00 0.00 0.00 0.000
5/22/2015 1:15:45a 199 0 3 34 68 75.9 55.6 30.03 11.35 0.0 0 0.00 0.00 0.00 0.000
5/22/2015 1:16:45a 199 0 3 34 68 75.9 55.6 30.03 11.35 0.0 0 0.00 0.00 0.00 0.000
5/22/2015 1:17:48a 199 0 3 34 68 75.9 55.6 30.03 11.35 0.0 0 0.00 0.00 0.00 0.000
5/22/2015 1:18:51a 199 0 0 34 68 75.9 55.6 30.03 11.35 0.0 0 0.00 0.00 0.00 0.000
5/22/2015 1:19:51a 199 0 1 34 68 75.9 55.6 30.03 11.35 0.0 0 0.00 0.00 0.00 0.000
5/22/2015 1:20:51a 199 0 1 34 68 75.9 55.6 30.03 11.35 0.0 0 0.00 0.00 0.00 0.000
5/22/2015 1:21:51a 199 2 2 34 68 75.9 55.6 30.03 11.35 0.0 0 0.00 0.00 0.00 0.000
5/22/2015 1:22:51a 199 1 3 34 68 75.9 55.6 30.03 11.35 0.0 0 0.00 0.00 0.00 0.000
5/22/2015 1:23:51a 199 1 3 34 68 75.9 55.6 30.02 11.35 0.0 0 0.00 0.00 0.00 0.000
5/22/2015 1:24:52a 199 1 3 34 68 75.9 55.5 30.02 11.35 0.0 0 0.00 0.00 0.00 0.000
5/22/2015 1:25:52a 199 0 3 34 68 75.9 55.5 30.02 11.35 0.0 0 0.00 0.00 0.00 0.000
5/22/2015 1:26:52a 199 0 3 34 67 75.9 55.5 30.02 11.35 0.0 0 0.00 0.00 0.00 0.000
5/22/2015 1:27:52a 199 0 3 34 67 75.9 55.5 30.02 11.35 0.0 0 0.00 0.00 0.00 0.000
5/22/2015 1:28:52a 199 0 3 34 67 75.9 55.4 30.02 11.35 0.0 0 0.00 0.00 0.00 0.000
5/22/2015 1:29:52a 199 0 3 34 67 75.8 55.5 30.02 11.35 0.0 0 0.00 0.00 0.00 0.000
5/22/2015 1:30:52a 199 0 3 34 67 75.8 55.5 30.02 11.35 0.0 0 0.00 0.00 0.00 0.000
5/22/2015 1:31:52a 199 0 3 34 67 75.8 55.5 30.02 11.35 0.0 0 0.00 0.00 0.00 0.000
5/22/2015 1:32:52a 199 0 3 34 67 75.8 55.5 30.02 11.35 0.0 0 0.00 0.00 0.00 0.000
5/22/2015 1:33:52a 199 0 0 34 67 75.8 55.5 30.02 11.35 0.0 0 0.00 0.00 0.00 0.000
5/22/2015 1:34:52a 199 0 0 34 67 75.8 55.5 30.02 11.35 0.0 0 0.00 0.00 0.00 0.000
5/22/2015 1:35:53a 199 0 0 34 67 75.8 55.5 30.02 11.35 0.0 0 0.00 0.00 0.00 0.000
5/22/2015 1:36:53a 199 0 0 34 67 75.8 55.4 30.02 11.35 0.0 0 0.00 0.00 0.00 0.000
5/22/2015 1:37:53a 199 0 0 34 67 75.8 55.5 30.02 11.35 0.0 0 0.00 0.00 0.00 0.000
5/22/2015 1:38:53a 199 0 0 34 67 75.8 55.4 30.02 11.35 0.0 0 0.00 0.00 0.00 0.000
5/22/2015 1:39:53a 199 0 0 34 67 75.8 55.5 30.02 11.35 0.0 0 0.00 0.00 0.00 0.000
5/22/2015 1:40:53a 199 0 0 34 67 75.8 55.5 30.02 11.35 0.0 0 0.00 0.00 0.00 0.000
5/22/2015 1:41:53a 199 0 2 34 67 75.8 55.5 30.02 11.35 0.0 0 0.00 0.00 0.00 0.000
5/22/2015 1:42:53a 199 0 2 34 67 75.8 55.5 30.02 11.35 0.0 0 0.00 0.00 0.00 0.000
5/22/2015 1:43:53a 199 1 2 34 67 75.8 55.5 30.02 11.35 0.0 0 0.00 0.00 0.00 0.000
5/22/2015 1:44:53a 199 1 2 34 67 75.8 55.5 30.02 11.35 0.0 0 0.00 0.00 0.00 0.000
5/22/2015 1:45:53a 199 0 2 34 67 75.8 55.5 30.02 11.35 0.0 0 0.00 0.00 0.00 0.000
5/22/2015 1:46:53a 199 0 3 34 67 75.8 55.5 30.02 11.35 0.0 0 0.00 0.00 0.00 0.000
5/22/2015 1:47:53a 199 0 3 34 67 75.8 55.5 30.02 11.35 0.0 0 0.00 0.00 0.00 0.000
5/22/2015 1:48:54a 199 0 0 34 67 75.8 55.5 30.02 11.35 0.0 0 0.00 0.00 0.00 0.000
5/22/2015 1:49:54a 199 0 0 34 67 75.8 55.5 30.02 11.35 0.0 0 0.00 0.00 0.00 0.000
5/22/2015 1:50:54a 199 0 1 34 67 75.6 55.5 30.02 11.35 0.0 0 0.00 0.00 0.00 0.000
5/22/2015 1:51:54a 199 0 1 34 66 75.6 55.5 30.02 11.35 0.0 0 0.00 0.00 0.00 0.000
5/22/2015 1:52:54a 199 0 1 34 66 75.6 55.5 30.02 11.35 0.0 0 0.00 0.00 0.00 0.000
5/22/2015 1:53:54a 199 0 1 34 66 75.6 55.5 30.02 11.35 0.0 0 0.00 0.00 0.00 0.000
5/22/2015 1:54:54a 199 2 3 34 66 75.6 55.5 30.02 11.35 0.0 0 0.00 0.00 0.00 0.000
5/22/2015 1:55:54a 199 0 3 34 66 75.6 55.5 30.02 11.35 0.0 0 0.00 0.00 0.00 0.000
5/22/2015 1:56:54a 199 0 3 34 66 75.6 55.5 30.02 11.35 0.0 0 0.00 0.00 0.00 0.000
5/22/2015 1:57:54a 199 1 3 34 66 75.6 55.5 30.02 11.35 0.0 0 0.00 0.00 0.00 0.000
5/22/2015 1:58:54a 199 1 3 34 66 75.6 55.4 30.02 11.35 0.0 0 0.00 0.00 0.00 0.000
5/22/2015 1:59:54a 199 2 3 34 66 75.6 55.4 30.02 11.35 0.0 0 0.00 0.00 0.00 0.000
5/22/2015 2:00:55a 199 2 3 34 66 75.6 55.4 30.02 11.35 0.0 0 0.00 0.00 0.00 0.000
5/22/2015 2:01:55a 199 2 3 34 66 75.6 55.4 30.02 11.35 0.0 0 0.00 0.00 0.00 0.000
5/22/2015 2:02:55a 199 1 3 34 66 75.6 55.4 30.02 11.35 0.0 0 0.00 0.00 0.00 0.000
5/22/2015 2:03:55a 199 1 1 34 66 75.6 55.4 30.02 11.35 0.0 0 0.00 0.00 0.00 0.000
5/22/2015 2:04:55a 199 3 3 34 66 75.6 55.4 30.02 11.35 0.0 0 0.00 0.00 0.00 0.000
5/22/2015 2:05:55a 199 0 3 34 66 75.6 55.4 30.02 11.35 0.0 0 0.00 0.00 0.00 0.000
5/22/2015 2:06:55a 199 0 3 34 66 75.6 55.4 30.02 11.35 0.0 0 0.00 0.00 0.00 0.000
5/22/2015 2:07:55a 199 0 3 34 66 75.6 55.4 30.02 11.35 0.0 0 0.00 0.00 0.00 0.000
5/22/2015 2:08:55a 199 2 3 34 66 75.6 55.4 30.02 11.35 0.0 0 0.00 0.00 0.00 0.000
5/22/2015 2:09:55a 199 3 3 34 66 75.6 55.4 30.02 11.35 0.0 0 0.00 0.00 0.00 0.000
5/22/2015 2:10:55a 199 2 4 34 66 75.6 55.4 30.02 11.35 0.0 0 0.00 0.00 0.00 0.000
5/22/2015 2:11:55a 199 0 4 34 66 75.6 55.4 30.02 11.35 0.0 0 0.00 0.00 0.00 0.000
5/22/2015 2:13:10a 199 0 4 34 66 75.4 55.4 30.02 11.35 0.0 0 0.00 0.00 0.00 0.000
5/22/2015 2:14:11a 199 0 4 34 66 75.4 55.4 30.02 11.35 0.0 0 0.00 0.00 0.00 0.000
5/22/2015 2:15:11a 199 0 4 34 66 75.4 55.4 30.02 11.35 0.0 0 0.00 0.00 0.00 0.000
5/22/2015 2:16:11a 199 0 4 34 66 75.4 55.4 30.02 11.35 0.0 0 0.00 0.00 0.00 0.000
5/22/2015 2:17:20a 199 4 4 34 66 75.4 55.4 30.02 11.35 0.0 0 0.00 0.00 0.00 0.000
5/22/2015 2:18:20a 199 1 4 34 66 75.4 55.3 30.02 11.35 0.0 0 0.00 0.00 0.00 0.000
5/22/2015 2:19:20a 190 3 5 34 66 75.4 55.3 30.02 11.35 0.0 0 0.00 0.00 0.00 0.000
5/22/2015 2:20:20a 190 3 5 34 66 75.4 55.3 30.02 11.35 0.0 0 0.00 0.00 0.00 0.000
5/22/2015 2:21:20a 201 2 5 34 66 75.4 55.3 30.02 11.35 0.0 0 0.00 0.00 0.00 0.000
5/22/2015 2:22:20a 201 0 5 34 66 75.4 55.3 30.02 11.35 0.0 0 0.00 0.00 0.00 0.000
5/22/2015 2:23:20a 201 3 5 34 66 75.4 55.3 30.02 11.35 0.0 0 0.00 0.00 0.00 0.000
5/22/2015 2:24:44a 201 0 5 34 66 75.4 55.3 30.02 11.35 0.0 0 0.00 0.00 0.00 0.000
5/22/2015 2:25:45a 201 0 5 34 66 75.4 55.3 30.02 11.35 0.0 0 0.00 0.00 0.00 0.000
5/22/2015 2:26:45a 201 0 5 34 66 75.4 55.3 30.02 11.35 0.0 0 0.00 0.00 0.00 0.000
5/22/2015 2:28:45a 268 0 5 34 66 75.4 55.2 30.02 11.35 0.0 0 0.00 0.00 0.00 0.000
5/22/2015 2:29:45a 268 2 5 34 66 75.4 55.2 30.02 11.35 0.0 0 0.00 0.00 0.00 0.000
5/22/2015 2:30:45a 268 1 5 34 66 75.4 55.2 30.02 11.35 0.0 0 0.00 0.00 0.00 0.000
5/22/2015 2:31:45a 268 0 5 34 66 75.4 55.2 30.02 11.35 0.0 0 0.00 0.00 0.00 0.000
5/22/2015 2:32:45a 268 0 5 34 66 75.4 55.2 30.02 11.35 0.0 0 0.00 0.00 0.00 0.000
5/22/2015 2:33:45a 269 0 5 34 66 75.4 55.2 30.02 11.35 0.0 0 0.00 0.00 0.00 0.000
5/22/2015 2:34:45a 269 0 0 34 66 75.4 55.2 30.02 11.35 0.0 0 0.00 0.00 0.00 0.000
5/22/2015 2:35:45a 269 0 1 34 66 75.4 55.2 30.02 11.35 0.0 0 0.00 0.00 0.00 0.000
5/22/2015 2:36:48a 268 0 1 34 66 75.2 55.2 30.02 11.35 0.0 0 0.00 0.00 0.00 0.000
5/22/2015 2:37:49a 269 0 1 34 66 75.2 55.2 30.02 11.35 0.0 0 0.00 0.00 0.00 0.000
5/22/2015 2:38:49a 269 0 1 34 66 75.2 55.2 30.02 11.35 0.0 0 0.00 0.00 0.00 0.000
5/22/2015 2:39:49a 269 0 1 34 66 75.2 55.2 30.02 11.35 0.0 0 0.00 0.00 0.00 0.000
5/22/2015 2:40:49a 268 0 1 34 66 75.2 55.2 30.02 11.35 0.0 0 0.00 0.00 0.00 0.000
5/22/2015 2:41:49a 268 1 1 34 66 75.2 55.2 30.02 11.35 0.0 0 0.00 0.00 0.00 0.000
5/22/2015 2:42:49a 268 0 2 34 66 75.2 55.2 30.02 11.35 0.0 0 0.00 0.00 0.00 0.000
5/22/2015 2:43:49a 268 0 2 34 66 75.2 55.2 30.02 11.35 0.0 0 0.00 0.00 0.00 0.000
5/22/2015 2:44:49a 269 0 2 34 66 75.2 55.2 30.02 11.35 0.0 0 0.00 0.00 0.00 0.000
5/22/2015 2:45:49a 269 1 2 34 66 75.2 55.1 30.02 11.35 0.0 0 0.00 0.00 0.00 0.000
5/22/2015 2:46:49a 269 0 2 34 66 75.2 55.2 30.02 11.35 0.0 0 0.00 0.00 0.00 0.000
5/22/2015 2:47:49a 268 0 2 34 66 75.2 55.1 30.02 11.35 0.0 0 0.00 0.00 0.00 0.000
5/22/2015 2:48:49a 268 0 0 34 66 75.2 55.2 30.02 11.35 0.0 0 0.00 0.00 0.00 0.000
5/22/2015 2:49:49a 268 0 0 34 66 75.2 55.1 30.02 11.35 0.0 0 0.00 0.00 0.00 0.000
5/22/2015 2:50:49a 269 0 0 34 66 75.2 55.1 30.02 11.35 0.0 0 0.00 0.00 0.00 0.000
5/22/2015 2:51:50a 269 0 0 34 66 75.2 55.2 30.02 11.35 0.0 0 0.00 0.00 0.00 0.000
5/22/2015 2:53:11a 269 0 1 34 66 75.2 55.2 30.02 11.35 0.0 0 0.00 0.00 0.00 0.000
5/22/2015 2:54:11a 269 0 1 34 66 75.2 55.2 30.02 11.35 0.0 0 0.00 0.00 0.00 0.000
5/22/2015 2:55:11a 269 0 1 34 66 75.2 55.1 30.02 11.35 0.0 0 0.00 0.00 0.00 0.000
5/22/2015 2:56:11a 268 0 1 34 66 75.2 55.2 30.02 11.35 0.0 0 0.00 0.00 0.00 0.000
5/22/2015 2:57:11a 269 0 1 34 66 75.2 55.1 30.02 11.35 0.0 0 0.00 0.00 0.00 0.000
5/22/2015 2:58:11a 268 0 1 34 66 75.2 55.2 30.02 11.35 0.0 0 0.00 0.00 0.00 0.000
5/22/2015 2:59:11a 269 0 1 34 66 75.2 55.1 30.02 11.35 0.0 0 0.00 0.00 0.00 0.000
5/22/2015 3:00:11a 269 1 2 34 66 75.1 55.1 30.02 11.35 0.0 0 0.00 0.00 0.00 0.000
5/22/2015 3:01:11a 269 0 2 34 66 75.1 55.1 30.02 11.35 0.0 0 0.00 0.00 0.00 0.000
5/22/2015 3:02:11a 269 0 2 34 66 75.1 55.1 30.02 11.35 0.0 0 0.00 0.00 0.00 0.000
5/22/2015 3:03:12a 268 0 2 34 66 75.1 55.1 30.02 11.35 0.0 0 0.00 0.00 0.00 0.000
5/22/2015 3:04:24a 268 0 0 34 66 75.1 55.1 30.02 11.35 0.0 0 0.00 0.00 0.00 0.000
5/22/2015 3:05:24a 268 1 1 34 66 75.1 55.1 30.01 11.35 0.0 0 0.00 0.00 0.00 0.000
5/22/2015 3:06:24a 269 0 1 34 66 75.1 55.1 30.01 11.35 0.0 0 0.00 0.00 0.00 0.000
5/22/2015 3:07:24a 269 0 1 34 66 75.1 55.0 30.01 11.35 0.0 0 0.00 0.00 0.00 0.000
5/22/2015 3:08:24a 269 0 1 34 66 75.1 55.0 30.01 11.35 0.0 0 0.00 0.00 0.00 0.000
5/22/2015 3:09:24a 269 0 1 34 66 75.1 55.0 30.01 11.35 0.0 0 0.00 0.00 0.00 0.000
5/22/2015 3:10:24a 269 0 1 34 66 75.1 55.0 30.01 11.35 0.0 0 0.00 0.00 0.00 0.000
5/22/2015 3:11:24a 269 1 1 34 66 75.1 55.0 30.01 11.35 0.0 0 0.00 0.00 0.00 0.000
5/22/2015 3:12:24a 268 0 1 34 66 75.1 55.0 30.01 11.35 0.0 0 0.00 0.00 0.00 0.000
5/22/2015 3:13:24a 268 0 1 34 66 75.1 55.0 30.01 11.35 0.0 0 0.00 0.00 0.00 0.000
5/22/2015 3:14:24a 268 1 1 34 66 75.1 55.0 30.01 11.35 0.0 0 0.00 0.00 0.00 0.000
5/22/2015 3:15:27a 268 0 1 34 66 75.1 54.9 30.01 11.35 0.0 0 0.00 0.00 0.00 0.000
5/22/2015 3:16:27a 269 0 1 34 66 75.1 55.0 30.01 11.35 0.0 0 0.00 0.00 0.00 0.000
5/22/2015 3:17:28a 269 0 1 34 66 75.1 54.9 30.01 11.35 0.0 0 0.00 0.00 0.00 0.000
5/22/2015 3:18:28a 269 0 1 34 66 75.1 54.9 30.01 11.35 0.0 0 0.00 0.00 0.00 0.000
5/22/2015 3:19:28a 269 0 2 34 66 75.1 54.9 30.01 11.35 0.0 0 0.00 0.00 0.00 0.000
5/22/2015 3:20:28a 269 0 2 34 66 75.1 54.9 30.01 11.35 0.0 0 0.00 0.00 0.00 0.000
5/22/2015 3:21:28a 268 1 2 34 66 75.1 54.9 30.01 11.35 0.0 0 0.00 0.00 0.00 0.000
5/22/2015 3:22:31a 269 0 2 34 66 74.9 54.9 30.01 11.35 0.0 0 0.00 0.00 0.00 0.000
5/22/2015 3:23:31a 268 0 2 34 66 74.9 54.9 30.01 11.35 0.0 0 0.00 0.00 0.00 0.000
5/22/2015 3:24:31a 268 0 2 34 66 74.9 54.9 30.01 11.35 0.0 0 0.00 0.00 0.00 0.000
5/22/2015 3:25:31a 268 0 2 34 66 74.9 54.9 30.01 11.35 0.0 0 0.00 0.00 0.00 0.000
5/22/2015 3:26:31a 269 0 2 34 66 74.9 54.9 30.01 11.35 0.0 0 0.00 0.00 0.00 0.000
5/22/2015 3:27:31a 269 0 2 34 66 74.9 54.8 30.01 11.35 0.0 0 0.00 0.00 0.00 0.000
5/22/2015 3:28:31a 269 0 2 34 66 74.9 54.8 30.01 11.35 0.0 0 0.00 0.00 0.00 0.000
5/22/2015 3:29:32a 269 0 2 34 66 74.9 54.9 30.01 11.35 0.0 0 0.00 0.00 0.00 0.000
5/22/2015 3:30:32a 268 2 2 34 66 74.9 54.8 30.01 11.35 0.0 0 0.00 0.00 0.00 0.000
5/22/2015 3:31:32a 269 1 2 34 66 74.9 54.8 30.01 11.35 0.0 0 0.00 0.00 0.00 0.000
5/22/2015 3:32:32a 34 0 3 34 66 74.9 54.8 30.01 11.35 0.0 0 0.00 0.00 0.00 0.000
5/22/2015 3:33:32a 37 0 3 34 66 74.9 54.8 30.01 11.35 0.0 0 0.00 0.00 0.00 0.000
5/22/2015 3:34:32a 37 0 1 34 66 74.9 54.8 30.01 11.35 0.0 0 0.00 0.00 0.00 0.000
5/22/2015 3:35:32a 37 0 1 34 66 74.9 54.8 30.01 11.35 0.0 0 0.00 0.00 0.00 0.000
5/22/2015 3:36:32a 37 3 3 34 66 74.9 54.8 30.01 11.35 0.0 0 0.00 0.00 0.00 0.000
5/22/2015 3:37:32a 37 1 3 34 66 74.9 54.8 30.01 11.35 0.0 0 0.00 0.00 0.00 0.000
5/22/2015 3:38:32a 36 0 3 34 66 74.9 54.8 30.01 11.35 0.0 0 0.00 0.00 0.00 0.000
5/22/2015 3:39:32a 36 2 3 34 66 74.9 54.9 30.01 11.35 0.0 0 0.00 0.00 0.00 0.000
5/22/2015 3:40:32a 37 0 3 34 66 74.9 54.8 30.01 11.35 0.0 0 0.00 0.00 0.00 0.000
5/22/2015 3:41:32a 37 0 3 34 66 74.9 54.9 30.01 11.35 0.0 0 0.00 0.00 0.00 0.000
5/22/2015 3:42:33a 38 2 3 34 66 74.9 54.8 30.01 11.35 0.0 0 0.00 0.00 0.00 0.000
5/22/2015 3:43:33a 38 1 3 34 66 74.9 54.9 30.01 11.35 0.0 0 0.00 0.00 0.00 0.000
5/22/2015 3:44:33a 38 0 3 34 66 74.9 54.8 30.01 11.35 0.0 0 0.00 0.00 0.00 0.000
5/22/2015 3:45:33a 38 0 3 34 66 74.9 54.9 30.01 11.35 0.0 0 0.00 0.00 0.00 0.000
5/22/2015 3:46:33a 38 1 3 34 66 74.7 54.9 30.01 11.35 0.0 0 0.00 0.00 0.00 0.000
5/22/2015 3:47:33a 38 0 3 34 66 74.7 54.9 30.01 11.35 0.0 0 0.00 0.00 0.00 0.000
5/22/2015 3:48:45a 38 0 3 34 66 74.7 54.9 30.01 11.35 0.0 0 0.00 0.00 0.00 0.000
5/22/2015 3:49:45a 38 0 0 34 67 74.7 54.9 30.01 11.35 0.0 0 0.00 0.00 0.00 0.000
5/22/2015 3:50:45a 38 1 1 34 67 74.7 54.9 30.01 11.35 0.0 0 0.00 0.00 0.00 0.000
5/22/2015 3:51:45a 38 1 3 34 67 74.7 54.9 30.01 11.35 0.0 0 0.00 0.00 0.00 0.000
5/22/2015 3:52:45a 38 1 3 34 67 74.7 54.9 30.01 11.35 0.0 0 0.00 0.00 0.00 0.000
5/22/2015 3:53:45a 38 0 3 34 67 74.7 54.9 30.01 11.35 0.0 0 0.00 0.00 0.00 0.000
5/22/2015 3:54:46a 38 0 3 34 67 74.7 54.9 30.01 11.35 0.0 0 0.00 0.00 0.00 0.000
5/22/2015 3:55:46a 38 0 3 34 67 74.7 54.8 30.01 11.35 0.0 0 0.00 0.00 0.00 0.000
5/22/2015 3:56:49a 38 0 3 34 67 74.7 54.8 30.01 11.35 0.0 0 0.00 0.00 0.00 0.000
5/22/2015 3:57:52a 38 0 3 34 67 74.7 54.8 30.01 11.35 0.0 0 0.00 0.00 0.00 0.000
5/22/2015 3:58:52a 38 0 3 34 67 74.7 54.8 30.01 11.35 0.0 0 0.00 0.00 0.00 0.000
5/22/2015 3:59:52a 38 0 3 34 67 74.7 54.8 30.01 11.35 0.0 0 0.00 0.00 0.00 0.000
5/22/2015 4:00:52a 38 2 3 34 67 74.7 54.8 30.01 11.35 0.0 0 0.00 0.00 0.00 0.000
5/22/2015 4:01:52a 40 0 3 34 67 74.7 54.8 30.01 11.35 0.0 0 0.00 0.00 0.00 0.000
5/22/2015 4:02:52a 42 1 3 34 67 74.7 54.8 30.01 11.35 0.0 0 0.00 0.00 0.00 0.000
5/22/2015 4:03:52a 47 2 3 34 67 74.7 54.7 30.01 11.35 0.0 0 0.00 0.00 0.00 0.000
5/22/2015 4:04:52a 47 2 3 34 67 74.7 54.7 30.01 11.35 0.0 0 0.00 0.00 0.00 0.000
5/22/2015 4:05:52a 46 1 3 34 67 74.7 54.7 30.01 11.35 0.0 0 0.00 0.00 0.00 0.000
5/22/2015 4:06:52a 46 1 3 34 67 74.7 54.7 30.01 11.35 0.0 0 0.00 0.00 0.00 0.000
5/22/2015 4:07:52a 47 0 3 34 67 74.7 54.7 30.01 11.35 0.0 0 0.00 0.00 0.00 0.000
5/22/2015 4:08:53a 47 0 3 34 67 74.7 54.7 30.01 11.35 0.0 0 0.00 0.00 0.00 0.000
5/22/2015 4:09:53a 47 1 3 34 67 74.5 54.6 30.01 11.35 0.0 0 0.00 0.00 0.00 0.000
5/22/2015 4:10:53a 47 0 3 34 67 74.5 54.6 30.01 11.35 0.0 0 0.00 0.00 0.00 0.000
5/22/2015 4:11:53a 47 0 3 34 67 74.5 54.6 30.01 11.35 0.0 0 0.00 0.00 0.00 0.000
5/22/2015 4:12:53a 46 0 3 34 67 74.5 54.6 30.01 11.35 0.0 0 0.00 0.00 0.00 0.000
5/22/2015 4:13:53a 47 0 3 34 67 74.5 54.6 30.01 11.35 0.0 0 0.00 0.00 0.00 0.000
5/22/2015 4:14:53a 47 0 3 34 67 74.5 54.5 30.01 11.35 0.0 0 0.00 0.00 0.00 0.000
5/22/2015 4:15:53a 47 0 3 34 67 74.5 54.5 30.01 11.35 0.0 0 0.00 0.00 0.00 0.000
5/22/2015 4:16:53a 47 0 3 34 67 74.5 54.5 30.01 11.35 0.0 0 0.00 0.00 0.00 0.000
5/22/2015 4:17:53a 46 0 3 34 68 74.5 54.5 30.01 11.35 0.0 0 0.00 0.00 0.00 0.000
5/22/2015 4:18:53a 47 0 0 34 68 74.5 54.5 30.01 11.35 0.0 0 0.00 0.00 0.00 0.000
5/22/2015 4:19:53a 46 0 0 34 68 74.5 54.5 30.01 11.35 0.0 0 0.00 0.00 0.00 0.000
5/22/2015 4:20:53a 47 1 2 34 68 74.5 54.4 30.01 11.35 0.0 0 0.00 0.00 0.00 0.000
5/22/2015 4:21:54a 46 1 2 34 68 74.5 54.4 30.01 11.35 0.0 0 0.00 0.00 0.00 0.000
5/22/2015 4:22:54a 47 0 2 34 68 74.5 54.4 30.01 11.35 0.0 0 0.00 0.00 0.00 0.000
5/22/2015 4:23:54a 47 0 2 34 68 74.5 54.4 30.01 11.35 0.0 0 0.00 0.00 0.00 0.000
5/22/2015 4:24:54a 46 1 2 34 68 74.5 54.4 30.01 11.35 0.0 0 0.00 0.00 0.00 0.000
5/22/2015 4:25:54a 47 1 2 34 68 74.5 54.4 30.01 11.35 0.0 0 0.00 0.00 0.00 0.000
5/22/2015 4:26:54a 47 0 2 34 68 74.5 54.3 30.01 11.35 0.0 0 0.00 0.00 0.00 0.000
5/22/2015 4:27:54a 47 0 2 34 68 74.5 54.3 30.01 11.35 0.0 0 0.00 0.00 0.00 0.000

© All rights reserved. Unauthorized duplication or distribution is prohibited

Never base important decisions on this or any weather information obtained from the Internet

California State University, San Bernardino
5500 University Parkway, San Bernardino, CA. 92407
Phone: (909) 537-7558, Email: Weather Master
Last Updated: